星链-30172 (STARLINK-30172 )

导读

STARLINK-30172是美国SpaceX公司星链星座中的一颗低轨卫星,于2023年7月20日发射升空。作为星链互联网星座的组成部分,它运行在近地轨道,依托相控阵天线技术,为全球用户提供高速低延迟的卫星宽带服务,助力实现全球无缝网络覆盖,尤其服务偏远地区及移动场景的联网需求,是星链大规模星座部署中的一环。

基本信息
目录编号:
57410
目录名称:
STARLINK-30172
国际标识:
2023-102G
轨道中心:
EARTH
卫星名称:
星链-30172
卫星全名:
星链-30172 (STARLINK-30172 )
卫星状态:
在轨 (已飞行1064 天)
发射日期:
2023-07-20 UTC
国别 :
美国 (US)
星等 :
--
轨道信息
数据来源 国际轨道数据 AOE轨道数据
星历时间 2026-06-18T08:06:30+0800
13小时前
查看轨道信息
2026-06-18T17:00:00+0800
4小时前
查看轨道信息
半长轴 6861.206km 6861.192km
偏心率 0.0001136 0.0000028
轨道倾角 43.005° 42.999°
近地点辐角 274.021° 339.546°
升交点赤经 42.744° 40.653°
平近点角 86.051° 260.336°
近地点 482.289km 483.035km
远地点 483.849km 483.075km
周期 94.267分钟 94.267分钟
每日圈数 15.275736 15.275781
详细信息
固有亮度:
5
最大亮度:
0.3
卫星平台:
Starlink v2.0 mini
覆盖范围:
全球
运营商:
太空探索技术公司
运营商所在国:
美国
制造商(研发单位):
太空探索技术公司
制造商所在国:
美国
使用方式:
暂无
卫星简介
星链(Starlink)计划是由太空探索技术公司(SpaceX)提出的一个巨型低轨卫星互联网星座项目,计划在2019年至2024年间在太空搭建由约1.2万颗卫星组成的“星链”网络,其中1584颗将部署在地球上空550千米处的近地轨道,并从2020年开始工作。该卫星仍在工作。
2D轨道图
3D轨道图
轨道高度分析图
轨道倾角分析图
轨道综合分析图
查看轨道综合分析图